site,time,unit,value
Athelstan Road,2024-04-21T00:05:00+01:00,MW,-4.407
Athelstan Road,2024-04-21T00:10:00+01:00,MW,-4.413
Athelstan Road,2024-04-21T00:15:00+01:00,MW,-4.3309999999999995
Athelstan Road,2024-04-21T00:20:00+01:00,MW,-4.295999999999999
Athelstan Road,2024-04-21T00:25:00+01:00,MW,-4.338
Athelstan Road,2024-04-21T00:30:00+01:00,MW,-4.348
Athelstan Road,2024-04-21T00:35:00+01:00,MW,-4.306
Athelstan Road,2024-04-21T00:40:00+01:00,MW,-4.261
Athelstan Road,2024-04-21T00:45:00+01:00,MW,-4.2940000000000005
Athelstan Road,2024-04-21T00:50:00+01:00,MW,-4.312
Athelstan Road,2024-04-21T00:55:00+01:00,MW,-4.25
Athelstan Road,2024-04-21T01:00:00+01:00,MW,-4.152
Athelstan Road,2024-04-21T01:05:00+01:00,MW,-4.425000000000001
Athelstan Road,2024-04-21T01:10:00+01:00,MW,-4.5440000000000005
Athelstan Road,2024-04-21T01:15:00+01:00,MW,-4.57
Athelstan Road,2024-04-21T01:20:00+01:00,MW,-4.523
Athelstan Road,2024-04-21T01:25:00+01:00,MW,-4.539
Athelstan Road,2024-04-21T01:30:00+01:00,MW,-4.566
Athelstan Road,2024-04-21T01:35:00+01:00,MW,-4.672000000000001
Athelstan Road,2024-04-21T01:40:00+01:00,MW,-4.704
Athelstan Road,2024-04-21T01:45:00+01:00,MW,-4.643
Athelstan Road,2024-04-21T01:50:00+01:00,MW,-4.609999999999999
Athelstan Road,2024-04-21T01:55:00+01:00,MW,-4.601
Athelstan Road,2024-04-21T02:00:00+01:00,MW,-4.642
Athelstan Road,2024-04-21T02:05:00+01:00,MW,-4.691000000000001
Athelstan Road,2024-04-21T02:10:00+01:00,MW,-4.561
Athelstan Road,2024-04-21T02:15:00+01:00,MW,-4.537
Athelstan Road,2024-04-21T02:20:00+01:00,MW,-4.5
Athelstan Road,2024-04-21T02:25:00+01:00,MW,-4.4670000000000005
Athelstan Road,2024-04-21T02:30:00+01:00,MW,-4.461
Athelstan Road,2024-04-21T02:35:00+01:00,MW,-4.38
Athelstan Road,2024-04-21T02:40:00+01:00,MW,-4.356999999999999
Athelstan Road,2024-04-21T02:45:00+01:00,MW,-4.325
Athelstan Road,2024-04-21T02:50:00+01:00,MW,-4.314
Athelstan Road,2024-04-21T02:55:00+01:00,MW,-4.241
Athelstan Road,2024-04-21T03:00:00+01:00,MW,-4.215
Athelstan Road,2024-04-21T03:05:00+01:00,MW,-4.21
Athelstan Road,2024-04-21T03:10:00+01:00,MW,-4.121
Athelstan Road,2024-04-21T03:15:00+01:00,MW,-4.061
Athelstan Road,2024-04-21T03:20:00+01:00,MW,-4.047
Athelstan Road,2024-04-21T03:25:00+01:00,MW,-4.034
Athelstan Road,2024-04-21T03:30:00+01:00,MW,-4.02
Athelstan Road,2024-04-21T03:35:00+01:00,MW,-4.051
Athelstan Road,2024-04-21T03:40:00+01:00,MW,-3.994
Athelstan Road,2024-04-21T03:45:00+01:00,MW,-3.985
Athelstan Road,2024-04-21T03:50:00+01:00,MW,-3.9610000000000003
Athelstan Road,2024-04-21T03:55:00+01:00,MW,-3.904
Athelstan Road,2024-04-21T04:00:00+01:00,MW,-3.9640000000000004
Athelstan Road,2024-04-21T04:05:00+01:00,MW,-3.952
Athelstan Road,2024-04-21T04:10:00+01:00,MW,-3.916
Athelstan Road,2024-04-21T04:15:00+01:00,MW,-3.912
Athelstan Road,2024-04-21T04:20:00+01:00,MW,-3.903
Athelstan Road,2024-04-21T04:25:00+01:00,MW,-3.908
Athelstan Road,2024-04-21T04:30:00+01:00,MW,-3.8920000000000003
Athelstan Road,2024-04-21T04:35:00+01:00,MW,-3.843
Athelstan Road,2024-04-21T04:40:00+01:00,MW,-3.915
Athelstan Road,2024-04-21T04:45:00+01:00,MW,-3.9290000000000003
Athelstan Road,2024-04-21T04:50:00+01:00,MW,-3.856
Athelstan Road,2024-04-21T04:55:00+01:00,MW,-3.884
Athelstan Road,2024-04-21T05:00:00+01:00,MW,-3.876
Athelstan Road,2024-04-21T05:05:00+01:00,MW,-3.867
Athelstan Road,2024-04-21T05:10:00+01:00,MW,-3.967
Athelstan Road,2024-04-21T05:15:00+01:00,MW,-3.915
Athelstan Road,2024-04-21T05:20:00+01:00,MW,-3.854
Athelstan Road,2024-04-21T05:25:00+01:00,MW,-3.81
Athelstan Road,2024-04-21T05:30:00+01:00,MW,-3.845
Athelstan Road,2024-04-21T05:35:00+01:00,MW,-3.841
Athelstan Road,2024-04-21T05:40:00+01:00,MW,-3.854
Athelstan Road,2024-04-21T05:45:00+01:00,MW,-3.856
Athelstan Road,2024-04-21T05:50:00+01:00,MW,-3.9530000000000003
Athelstan Road,2024-04-21T05:55:00+01:00,MW,-3.976
Athelstan Road,2024-04-21T06:00:00+01:00,MW,-4.007
Athelstan Road,2024-04-21T06:05:00+01:00,MW,-4.039
Athelstan Road,2024-04-21T06:10:00+01:00,MW,-4.093999999999999
Athelstan Road,2024-04-21T06:15:00+01:00,MW,-4.13
Athelstan Road,2024-04-21T06:20:00+01:00,MW,-4.145
Athelstan Road,2024-04-21T06:25:00+01:00,MW,-4.15
Athelstan Road,2024-04-21T06:30:00+01:00,MW,-4.2330000000000005
Athelstan Road,2024-04-21T06:35:00+01:00,MW,-4.164
Athelstan Road,2024-04-21T06:40:00+01:00,MW,-4.232
Athelstan Road,2024-04-21T06:45:00+01:00,MW,-4.2059999999999995
Athelstan Road,2024-04-21T06:50:00+01:00,MW,-4.232
Athelstan Road,2024-04-21T06:55:00+01:00,MW,-4.329
Athelstan Road,2024-04-21T07:00:00+01:00,MW,-4.344
Athelstan Road,2024-04-21T07:05:00+01:00,MW,-4.282
Athelstan Road,2024-04-21T07:10:00+01:00,MW,-4.325
Athelstan Road,2024-04-21T07:15:00+01:00,MW,-4.27
Athelstan Road,2024-04-21T07:20:00+01:00,MW,-4.311
Athelstan Road,2024-04-21T07:25:00+01:00,MW,-4.352
Athelstan Road,2024-04-21T07:30:00+01:00,MW,-4.43
Athelstan Road,2024-04-21T07:35:00+01:00,MW,-4.523
Athelstan Road,2024-04-21T07:40:00+01:00,MW,-4.385
Athelstan Road,2024-04-21T07:45:00+01:00,MW,-4.466
Athelstan Road,2024-04-21T07:50:00+01:00,MW,-4.584
Athelstan Road,2024-04-21T07:55:00+01:00,MW,-4.5329999999999995
Athelstan Road,2024-04-21T08:00:00+01:00,MW,-4.585
Athelstan Road,2024-04-21T08:05:00+01:00,MW,-4.585
Athelstan Road,2024-04-21T08:10:00+01:00,MW,-4.652
Athelstan Road,2024-04-21T08:15:00+01:00,MW,-4.654
Athelstan Road,2024-04-21T08:20:00+01:00,MW,-4.654999999999999
Athelstan Road,2024-04-21T08:25:00+01:00,MW,-4.692
Athelstan Road,2024-04-21T08:30:00+01:00,MW,-4.774
Athelstan Road,2024-04-21T08:35:00+01:00,MW,-4.973000000000001
Athelstan Road,2024-04-21T08:40:00+01:00,MW,-5.073
Athelstan Road,2024-04-21T08:45:00+01:00,MW,-5.016
Athelstan Road,2024-04-21T08:50:00+01:00,MW,-4.96
Athelstan Road,2024-04-21T08:55:00+01:00,MW,-5.011
Athelstan Road,2024-04-21T09:00:00+01:00,MW,-5.016
Athelstan Road,2024-04-21T09:05:00+01:00,MW,-5.1739999999999995
Athelstan Road,2024-04-21T09:10:00+01:00,MW,-5.231999999999999
Athelstan Road,2024-04-21T09:15:00+01:00,MW,-5.152
Athelstan Road,2024-04-21T09:20:00+01:00,MW,-5.109
Athelstan Road,2024-04-21T09:25:00+01:00,MW,-5.037
Athelstan Road,2024-04-21T09:30:00+01:00,MW,-5.18
Athelstan Road,2024-04-21T09:35:00+01:00,MW,-5.2780000000000005
Athelstan Road,2024-04-21T09:40:00+01:00,MW,-5.148
Athelstan Road,2024-04-21T09:45:00+01:00,MW,-5.2829999999999995
Athelstan Road,2024-04-21T09:50:00+01:00,MW,-5.311
Athelstan Road,2024-04-21T09:55:00+01:00,MW,-5.3919999999999995
Athelstan Road,2024-04-21T10:00:00+01:00,MW,-5.361000000000001
Athelstan Road,2024-04-21T10:05:00+01:00,MW,-5.522
Athelstan Road,2024-04-21T10:10:00+01:00,MW,-5.5
Athelstan Road,2024-04-21T10:15:00+01:00,MW,-5.526
Athelstan Road,2024-04-21T10:20:00+01:00,MW,-5.595000000000001
Athelstan Road,2024-04-21T10:25:00+01:00,MW,-5.522
Athelstan Road,2024-04-21T10:30:00+01:00,MW,-5.529
Athelstan Road,2024-04-21T10:35:00+01:00,MW,-5.656
Athelstan Road,2024-04-21T10:40:00+01:00,MW,-5.638
Athelstan Road,2024-04-21T10:45:00+01:00,MW,-5.76
Athelstan Road,2024-04-21T10:50:00+01:00,MW,-5.657
Athelstan Road,2024-04-21T10:55:00+01:00,MW,-5.715
Athelstan Road,2024-04-21T11:00:00+01:00,MW,-5.7780000000000005
Athelstan Road,2024-04-21T11:05:00+01:00,MW,-5.755
Athelstan Road,2024-04-21T11:10:00+01:00,MW,-5.7669999999999995
Athelstan Road,2024-04-21T11:15:00+01:00,MW,-5.814
Athelstan Road,2024-04-21T11:20:00+01:00,MW,-5.741
Athelstan Road,2024-04-21T11:25:00+01:00,MW,-5.827
Athelstan Road,2024-04-21T11:30:00+01:00,MW,-5.758
Athelstan Road,2024-04-21T11:35:00+01:00,MW,-5.9350000000000005
Athelstan Road,2024-04-21T11:40:00+01:00,MW,-5.7620000000000005
Athelstan Road,2024-04-21T11:45:00+01:00,MW,-5.879
Athelstan Road,2024-04-21T11:50:00+01:00,MW,-5.775
Athelstan Road,2024-04-21T11:55:00+01:00,MW,-6.026999999999999
Athelstan Road,2024-04-21T12:00:00+01:00,MW,-6.0329999999999995
Athelstan Road,2024-04-21T12:05:00+01:00,MW,-6.009
Athelstan Road,2024-04-21T12:10:00+01:00,MW,-6.166
Athelstan Road,2024-04-21T12:15:00+01:00,MW,-6.032
Athelstan Road,2024-04-21T12:20:00+01:00,MW,-6.1419999999999995
Athelstan Road,2024-04-21T12:25:00+01:00,MW,-5.938000000000001
Athelstan Road,2024-04-21T12:30:00+01:00,MW,-6.152
Athelstan Road,2024-04-21T12:35:00+01:00,MW,-6.203
Athelstan Road,2024-04-21T12:40:00+01:00,MW,-6.1240000000000006
Athelstan Road,2024-04-21T12:45:00+01:00,MW,-6.1530000000000005
Athelstan Road,2024-04-21T12:50:00+01:00,MW,-6.218
Athelstan Road,2024-04-21T12:55:00+01:00,MW,-6.166
Athelstan Road,2024-04-21T13:00:00+01:00,MW,-6.223000000000001
Athelstan Road,2024-04-21T13:05:00+01:00,MW,-6.05
Athelstan Road,2024-04-21T13:10:00+01:00,MW,-5.92
Athelstan Road,2024-04-21T13:15:00+01:00,MW,-6.073
Athelstan Road,2024-04-21T13:20:00+01:00,MW,-5.943
Athelstan Road,2024-04-21T13:25:00+01:00,MW,-5.9879999999999995
Athelstan Road,2024-04-21T13:30:00+01:00,MW,-5.937
Athelstan Road,2024-04-21T13:35:00+01:00,MW,-5.949
Athelstan Road,2024-04-21T13:40:00+01:00,MW,-6.036
Athelstan Road,2024-04-21T13:45:00+01:00,MW,-5.8870000000000005
Athelstan Road,2024-04-21T13:50:00+01:00,MW,-5.769
Athelstan Road,2024-04-21T13:55:00+01:00,MW,-5.845
Athelstan Road,2024-04-21T14:00:00+01:00,MW,-5.984
Athelstan Road,2024-04-21T14:05:00+01:00,MW,-5.827
Athelstan Road,2024-04-21T14:10:00+01:00,MW,-5.8870000000000005
Athelstan Road,2024-04-21T14:15:00+01:00,MW,-5.82
Athelstan Road,2024-04-21T14:20:00+01:00,MW,-5.986000000000001
Athelstan Road,2024-04-21T14:25:00+01:00,MW,-6.009
Athelstan Road,2024-04-21T14:30:00+01:00,MW,-5.938000000000001
Athelstan Road,2024-04-21T14:35:00+01:00,MW,-5.968999999999999
Athelstan Road,2024-04-21T14:40:00+01:00,MW,-5.651
Athelstan Road,2024-04-21T14:45:00+01:00,MW,-5.82
Athelstan Road,2024-04-21T14:50:00+01:00,MW,-6.077
Athelstan Road,2024-04-21T14:55:00+01:00,MW,-5.883
Athelstan Road,2024-04-21T15:00:00+01:00,MW,-5.723
Athelstan Road,2024-04-21T15:05:00+01:00,MW,-5.673
Athelstan Road,2024-04-21T15:10:00+01:00,MW,-5.644
Athelstan Road,2024-04-21T15:15:00+01:00,MW,-5.628
Athelstan Road,2024-04-21T15:20:00+01:00,MW,-5.635
Athelstan Road,2024-04-21T15:25:00+01:00,MW,-5.644
Athelstan Road,2024-04-21T15:30:00+01:00,MW,-5.718999999999999
Athelstan Road,2024-04-21T15:35:00+01:00,MW,-5.556
Athelstan Road,2024-04-21T15:40:00+01:00,MW,-5.583
Athelstan Road,2024-04-21T15:45:00+01:00,MW,-5.506
Athelstan Road,2024-04-21T15:50:00+01:00,MW,-5.616
Athelstan Road,2024-04-21T15:55:00+01:00,MW,-5.6899999999999995
Athelstan Road,2024-04-21T16:00:00+01:00,MW,-5.747
Athelstan Road,2024-04-21T16:05:00+01:00,MW,-5.7
Athelstan Road,2024-04-21T16:10:00+01:00,MW,-5.835
Athelstan Road,2024-04-21T16:15:00+01:00,MW,-5.77
Athelstan Road,2024-04-21T16:20:00+01:00,MW,-5.869
Athelstan Road,2024-04-21T16:25:00+01:00,MW,-5.824
Athelstan Road,2024-04-21T16:30:00+01:00,MW,-5.764
Athelstan Road,2024-04-21T16:35:00+01:00,MW,-5.764
Athelstan Road,2024-04-21T16:40:00+01:00,MW,-5.71
Athelstan Road,2024-04-21T16:45:00+01:00,MW,-5.808
Athelstan Road,2024-04-21T16:50:00+01:00,MW,-5.785
Athelstan Road,2024-04-21T16:55:00+01:00,MW,-5.744
Athelstan Road,2024-04-21T17:00:00+01:00,MW,-5.686
Athelstan Road,2024-04-21T17:05:00+01:00,MW,-5.741
Athelstan Road,2024-04-21T17:10:00+01:00,MW,-5.918
Athelstan Road,2024-04-21T17:15:00+01:00,MW,-5.805
Athelstan Road,2024-04-21T17:20:00+01:00,MW,-5.7490000000000006
Athelstan Road,2024-04-21T17:25:00+01:00,MW,-5.7059999999999995
Athelstan Road,2024-04-21T17:30:00+01:00,MW,-5.828
Athelstan Road,2024-04-21T17:35:00+01:00,MW,-5.7989999999999995
Athelstan Road,2024-04-21T17:40:00+01:00,MW,-5.766
Athelstan Road,2024-04-21T17:45:00+01:00,MW,-5.812
Athelstan Road,2024-04-21T17:50:00+01:00,MW,-5.825
Athelstan Road,2024-04-21T17:55:00+01:00,MW,-5.8420000000000005
Athelstan Road,2024-04-21T18:00:00+01:00,MW,-5.878
Athelstan Road,2024-04-21T18:05:00+01:00,MW,-5.679
Athelstan Road,2024-04-21T18:10:00+01:00,MW,-5.659000000000001
Athelstan Road,2024-04-21T18:15:00+01:00,MW,-5.692
Athelstan Road,2024-04-21T18:20:00+01:00,MW,-5.702999999999999
Athelstan Road,2024-04-21T18:25:00+01:00,MW,-5.734
Athelstan Road,2024-04-21T18:30:00+01:00,MW,-5.77
Athelstan Road,2024-04-21T18:35:00+01:00,MW,-5.87
Athelstan Road,2024-04-21T18:40:00+01:00,MW,-5.805
Athelstan Road,2024-04-21T18:45:00+01:00,MW,-5.819
Athelstan Road,2024-04-21T18:50:00+01:00,MW,-5.920999999999999
Athelstan Road,2024-04-21T18:55:00+01:00,MW,-5.9830000000000005
Athelstan Road,2024-04-21T19:00:00+01:00,MW,-5.89
Athelstan Road,2024-04-21T19:05:00+01:00,MW,-5.795999999999999
Athelstan Road,2024-04-21T19:10:00+01:00,MW,-5.875
Athelstan Road,2024-04-21T19:15:00+01:00,MW,-5.841
Athelstan Road,2024-04-21T19:20:00+01:00,MW,-5.758
Athelstan Road,2024-04-21T19:25:00+01:00,MW,-5.776999999999999
Athelstan Road,2024-04-21T19:30:00+01:00,MW,-5.746
Athelstan Road,2024-04-21T19:35:00+01:00,MW,-5.787000000000001
Athelstan Road,2024-04-21T19:40:00+01:00,MW,-5.745
Athelstan Road,2024-04-21T19:45:00+01:00,MW,-5.712999999999999
Athelstan Road,2024-04-21T19:50:00+01:00,MW,-5.6370000000000005
Athelstan Road,2024-04-21T19:55:00+01:00,MW,-5.686
Athelstan Road,2024-04-21T20:00:00+01:00,MW,-5.6850000000000005
Athelstan Road,2024-04-21T20:05:00+01:00,MW,-5.609
Athelstan Road,2024-04-21T20:10:00+01:00,MW,-5.667
Athelstan Road,2024-04-21T20:15:00+01:00,MW,-5.609999999999999
Athelstan Road,2024-04-21T20:20:00+01:00,MW,-5.569
Athelstan Road,2024-04-21T20:25:00+01:00,MW,-5.634
Athelstan Road,2024-04-21T20:30:00+01:00,MW,-5.7219999999999995
Athelstan Road,2024-04-21T20:35:00+01:00,MW,-5.659
Athelstan Road,2024-04-21T20:40:00+01:00,MW,-5.673
Athelstan Road,2024-04-21T20:45:00+01:00,MW,-5.6850000000000005
Athelstan Road,2024-04-21T20:50:00+01:00,MW,-5.736000000000001
Athelstan Road,2024-04-21T20:55:00+01:00,MW,-5.601
Athelstan Road,2024-04-21T21:00:00+01:00,MW,-5.668
Athelstan Road,2024-04-21T21:05:00+01:00,MW,-5.779999999999999
Athelstan Road,2024-04-21T21:10:00+01:00,MW,-5.7330000000000005
Athelstan Road,2024-04-21T21:15:00+01:00,MW,-5.6530000000000005
Athelstan Road,2024-04-21T21:20:00+01:00,MW,-5.7
Athelstan Road,2024-04-21T21:25:00+01:00,MW,-5.7379999999999995
Athelstan Road,2024-04-21T21:30:00+01:00,MW,-5.72
Athelstan Road,2024-04-21T21:35:00+01:00,MW,-5.578
Athelstan Road,2024-04-21T21:40:00+01:00,MW,-5.503
Athelstan Road,2024-04-21T21:45:00+01:00,MW,-5.4
Athelstan Road,2024-04-21T21:50:00+01:00,MW,-5.415
Athelstan Road,2024-04-21T21:55:00+01:00,MW,-5.2989999999999995
Athelstan Road,2024-04-21T22:00:00+01:00,MW,-5.306
Athelstan Road,2024-04-21T22:05:00+01:00,MW,-5.213
Athelstan Road,2024-04-21T22:10:00+01:00,MW,-5.254
Athelstan Road,2024-04-21T22:15:00+01:00,MW,-5.193
Athelstan Road,2024-04-21T22:20:00+01:00,MW,-5.1739999999999995
Athelstan Road,2024-04-21T22:25:00+01:00,MW,-5.053
Athelstan Road,2024-04-21T22:30:00+01:00,MW,-5.043
Athelstan Road,2024-04-21T22:35:00+01:00,MW,-5.050000000000001
Athelstan Road,2024-04-21T22:40:00+01:00,MW,-4.978
Athelstan Road,2024-04-21T22:45:00+01:00,MW,-4.999
Athelstan Road,2024-04-21T22:50:00+01:00,MW,-4.914
Athelstan Road,2024-04-21T22:55:00+01:00,MW,-4.804
Athelstan Road,2024-04-21T23:00:00+01:00,MW,-4.648
Athelstan Road,2024-04-21T23:05:00+01:00,MW,-4.658
Athelstan Road,2024-04-21T23:10:00+01:00,MW,-4.603
Athelstan Road,2024-04-21T23:15:00+01:00,MW,-4.572
Athelstan Road,2024-04-21T23:20:00+01:00,MW,-4.525
Athelstan Road,2024-04-21T23:25:00+01:00,MW,-4.495
Athelstan Road,2024-04-21T23:30:00+01:00,MW,-4.484999999999999
Athelstan Road,2024-04-21T23:35:00+01:00,MW,-4.461
Athelstan Road,2024-04-21T23:40:00+01:00,MW,-4.442
Athelstan Road,2024-04-21T23:45:00+01:00,MW,-4.356
Athelstan Road,2024-04-21T23:50:00+01:00,MW,-4.32
Athelstan Road,2024-04-21T23:55:00+01:00,MW,-4.306
Athelstan Road,2024-04-22T00:00:00+01:00,MW,-4.265000000000001
